Weather History for Taos, NM

Change the Weather History Date:

Monday, March 25, 2013

  Actual Average Record
Temperature  
Mean Temperature 26 °F -  
Max Temperature 44 °F 56 °F 75 °F (2012)
Min Temperature 8 °F 23 °F 8 °F (2013)
Degree Days  
Heating Degree Days 39    
Moisture  
Dew Point 0 °F    
Average Humidity 37    
Maximum Humidity 68    
Minimum Humidity 16    
Precipitation  
Precipitation 0.00 in - - ()
Sea Level Pressure  
Sea Level Pressure 30.13 in    
Wind  
Wind Speed 5 mph (SW)    
Max Wind Speed 13 mph    
Max Gust Speed 16 mph    
Visibility 10 miles    
Events      
Averages and records for this station are not official NWS values.
T = Trace of Precipitation, MM = Missing Value Source: NWS Daily Summary

Daily Weather History Graph

Daily Weather History Graph

Search for Another Location

Airport:

Trip Planner

Search our weather history database for the weather conditions in past years. The results will help you decide how hot, cold, wet, or windy it might be!

Date:

Astronomy

Mar. 25, 2013 Rise Set
Actual Time 6:58 AM MDT 7:19 PM MDT
Civil Twilight 6:32 AM MDT 7:44 PM MDT
Nautical Twilight 6:02 AM MDT 8:15 PM MDT
Astronomical Twilight 5:31 AM MDT 8:46 PM MDT
Moon 5:55 PM MDT (3/25) 5:41 AM MDT (3/25)
Length of Visible Light 13h 12m
Length of Day
12h 20m
Waxing Gibbous, 97% of the Moon is Illuminated
Mar 25
Waxing Gibbous
Mar 27
Full
Apr 2
Last Quarter
Apr 10
New
Apr 18
First Quarter

Hourly Weather History & Observations

Time (MDT) Temp. Windchill Dew Point Humidity Pressure Visibility Wind Dir Wind Speed Gust Speed Precip Events Conditions
12:15 AM 17.6 °F 9.3 °F 6.8 °F 63% 30.08 in 10.0 mi NW 5.8 mph - N/A   Clear
12:35 AM 15.8 °F 2.7 °F 5.0 °F 62% 30.07 in 10.0 mi NNW 11.5 mph - N/A   Clear
12:55 AM 17.6 °F 10.7 °F 1.4 °F 49% 30.08 in 10.0 mi North 4.6 mph - N/A   Clear
1:15 AM 17.6 °F 10.7 °F -0.4 °F 45% 30.08 in 10.0 mi NE 4.6 mph - N/A   Clear
1:35 AM 14.0 °F 3.9 °F -0.4 °F 53% 30.09 in 10.0 mi ENE 6.9 mph - N/A   Clear
1:55 AM 15.8 °F 6.1 °F 3.2 °F 58% 30.09 in 10.0 mi East 6.9 mph - N/A   Clear
2:15 AM 15.8 °F 7.2 °F 6.8 °F 68% 30.10 in 10.0 mi North 5.8 mph - N/A   Clear
2:35 AM 17.6 °F 10.7 °F 5.0 °F 58% 30.09 in 10.0 mi NE 4.6 mph - N/A   Clear
2:55 AM 19.4 °F - 8.6 °F 63% 30.09 in 10.0 mi Calm Calm - N/A   Clear
3:15 AM 12.2 °F 1.7 °F -2.2 °F 53% 30.09 in 10.0 mi NNW 6.9 mph - N/A   Clear
3:35 AM 10.4 °F -0.4 °F -4.0 °F 52% 30.09 in 10.0 mi NNW 6.9 mph - N/A   Clear
3:55 AM 10.4 °F 0.8 °F -2.2 °F 57% 30.09 in 10.0 mi NNW 5.8 mph - N/A   Clear
4:15 AM 12.2 °F 6.1 °F -0.4 °F 57% 30.10 in 10.0 mi NNW 3.5 mph - N/A   Clear
4:35 AM 10.4 °F 2.2 °F -5.8 °F 48% 30.10 in 10.0 mi NNE 4.6 mph - N/A   Clear
4:55 AM 8.6 °F -1.3 °F -4.0 °F 57% 30.10 in 10.0 mi NNE 5.8 mph - N/A   Clear
5:15 AM 8.6 °F -1.3 °F -0.4 °F 67% 30.10 in 10.0 mi NE 5.8 mph - N/A   Clear
5:35 AM 10.4 °F 0.8 °F 1.4 °F 67% 30.10 in 10.0 mi ENE 5.8 mph - N/A   Clear
5:55 AM 10.4 °F 4.0 °F -0.4 °F 62% 30.11 in 10.0 mi East 3.5 mph - N/A   Clear
6:15 AM 10.4 °F - 1.4 °F 67% 30.11 in 10.0 mi Calm Calm - N/A   Clear
6:35 AM 10.4 °F - 1.4 °F 67% 30.12 in 10.0 mi Calm Calm - N/A   Clear
6:55 AM 8.6 °F - -2.2 °F 62% 30.13 in 10.0 mi Calm Calm - N/A   Clear
7:15 AM 10.4 °F - 1.4 °F 67% 30.14 in 10.0 mi Calm Calm - N/A   Clear
7:35 AM 10.4 °F - 1.4 °F 67% 30.15 in 10.0 mi Calm Calm - N/A   Clear
7:55 AM 12.2 °F - 1.4 °F 62% 30.16 in 10.0 mi Calm Calm - N/A   Clear
8:15 AM 15.8 °F 7.2 °F 3.2 °F 58% 30.17 in 10.0 mi NNW 5.8 mph - N/A   Clear
8:35 AM 17.6 °F - -0.4 °F 45% 30.18 in 10.0 mi Calm Calm - N/A   Clear
8:55 AM 19.4 °F - 1.4 °F 46% 30.19 in 10.0 mi Calm Calm - N/A   Clear
9:15 AM 21.2 °F - 1.4 °F 42% 30.19 in 10.0 mi Calm Calm - N/A   Clear
9:35 AM 24.8 °F - 1.4 °F 36% 30.19 in 10.0 mi Calm Calm - N/A   Clear
9:55 AM 26.6 °F - 3.2 °F 37% 30.19 in 10.0 mi Calm Calm - N/A   Clear
10:15 AM 28.4 °F 24.6 °F 3.2 °F 34% 30.19 in 10.0 mi WSW 3.5 mph - N/A   Clear
10:35 AM 28.4 °F - 3.2 °F 34% 30.19 in 10.0 mi Calm Calm - N/A   Clear
10:55 AM 30.2 °F 23.4 °F 5.0 °F 34% 30.19 in 10.0 mi NNW 6.9 mph - N/A   Clear
11:15 AM 30.2 °F 21.9 °F 5.0 °F 34% 30.19 in 10.0 mi WSW 9.2 mph - N/A   Clear
11:35 AM 33.8 °F 28.6 °F 6.8 °F 32% 30.18 in 10.0 mi West 5.8 mph - N/A   Clear
11:55 AM 30.2 °F 22.6 °F 3.2 °F 32% 30.18 in 10.0 mi South 8.1 mph - N/A   Clear
12:15 PM 33.8 °F 30.8 °F 6.8 °F 32% 30.17 in 10.0 mi SSW 3.5 mph - N/A   Clear
12:35 PM 33.8 °F 28.6 °F 5.0 °F 30% 30.16 in 10.0 mi SSE 5.8 mph - N/A   Clear
12:55 PM 37.4 °F - 6.8 °F 28% 30.15 in 10.0 mi Calm Calm - N/A   Clear
1:15 PM 37.4 °F 32.1 °F 5.0 °F 26% 30.14 in 10.0 mi SW 6.9 mph - N/A   Clear
1:35 PM 37.4 °F 34.9 °F 5.0 °F 26% 30.13 in 10.0 mi North 3.5 mph - N/A   Clear
1:55 PM 39.2 °F 33.0 °F 6.8 °F 26% 30.13 in 10.0 mi South 9.2 mph - N/A   Clear
2:15 PM 39.2 °F 34.2 °F 5.0 °F 24% 30.12 in 10.0 mi SW 6.9 mph - N/A   Clear
2:35 PM 39.2 °F 35.0 °F 3.2 °F 22% 30.11 in 10.0 mi ESE 5.8 mph - N/A   Clear
2:55 PM 41.0 °F 35.8 °F 3.2 °F 21% 30.11 in 10.0 mi SW 8.1 mph - N/A   Clear
3:15 PM 41.0 °F 35.2 °F 3.2 °F 21% 30.10 in 10.0 mi SSE 9.2 mph - N/A   Clear
3:35 PM 42.8 °F 41.1 °F 3.2 °F 19% 30.10 in 10.0 mi NNE 3.5 mph - N/A   Clear
3:55 PM 42.8 °F 38.6 °F 3.2 °F 19% 30.09 in 10.0 mi SSW 6.9 mph - N/A   Clear
4:15 PM 44.6 °F - 1.4 °F 17% 30.09 in 10.0 mi Calm Calm - N/A   Clear
4:35 PM 44.6 °F 40.7 °F 3.2 °F 18% 30.09 in 10.0 mi West 6.9 mph - N/A   Clear
4:55 PM 44.6 °F 40.7 °F 1.4 °F 17% 30.08 in 10.0 mi South 6.9 mph - N/A   Clear
5:15 PM 44.6 °F 40.7 °F 1.4 °F 17% 30.08 in 10.0 mi SSW 6.9 mph - N/A   Clear
5:35 PM 42.8 °F 39.3 °F 1.4 °F 18% 30.08 in 10.0 mi West 5.8 mph - N/A   Clear
5:55 PM 44.6 °F 38.8 °F 1.4 °F 17% 30.09 in 10.0 mi SW 11.5 mph 16.1 mph N/A   Clear
6:15 PM 42.8 °F 36.2 °F -0.4 °F 16% 30.09 in 10.0 mi SW 12.7 mph - N/A   Clear
6:35 PM 42.8 °F 38.0 °F -0.4 °F 16% 30.10 in 10.0 mi South 8.1 mph - N/A   Clear
6:55 PM 41.0 °F 35.8 °F -0.4 °F 18% 30.10 in 10.0 mi SSW 8.1 mph - N/A   Clear
7:15 PM 39.2 °F 33.6 °F -2.2 °F 17% 30.10 in 10.0 mi SSW 8.1 mph - N/A   Clear
7:35 PM 35.6 °F 29.9 °F -5.8 °F 17% 30.11 in 10.0 mi SSW 6.9 mph - N/A   Clear
7:55 PM 33.8 °F 28.6 °F -5.8 °F 18% 30.12 in 10.0 mi WSW 5.8 mph - N/A   Clear
8:15 PM 30.2 °F 24.3 °F -7.6 °F 19% 30.13 in 10.0 mi WSW 5.8 mph - N/A   Clear
8:35 PM 28.4 °F 24.6 °F -9.4 °F 19% 30.14 in 10.0 mi WSW 3.5 mph - N/A   Clear
8:55 PM 30.2 °F 22.6 °F -7.6 °F 19% 30.15 in 10.0 mi SW 8.1 mph - N/A   Clear
9:15 PM 26.6 °F 18.2 °F -9.4 °F 21% 30.16 in 10.0 mi SSW 8.1 mph - N/A   Clear
9:35 PM 26.6 °F - -7.6 °F 22% 30.17 in 10.0 mi Calm Calm - N/A   Clear
9:55 PM 26.6 °F 21.2 °F -7.6 °F 22% 30.17 in 10.0 mi ENE 4.6 mph - N/A   Clear
10:15 PM 26.6 °F 21.2 °F -7.6 °F 22% 30.18 in 10.0 mi ESE 4.6 mph - N/A   Clear
10:35 PM 24.8 °F 20.5 °F -5.8 °F 26% 30.18 in 10.0 mi ESE 3.5 mph - N/A   Clear
10:55 PM 21.2 °F 13.6 °F -7.6 °F 28% 30.19 in 10.0 mi East 5.8 mph - N/A   Clear
11:15 PM 23.0 °F 14.7 °F -4.0 °F 31% 30.19 in 10.0 mi East 6.9 mph - N/A   Clear
11:35 PM 21.2 °F 11.7 °F -5.8 °F 30% 30.19 in 10.0 mi East 8.1 mph - N/A   Clear
11:55 PM 21.2 °F 12.6 °F -2.2 °F 36% 30.18 in 10.0 mi East 6.9 mph - N/A   Clear